Weather Roundup
Issued by NWS

Home | Current Version | Previous Version | Graphics & Text | Print | Product List | Glossary Off
Versions: 1 2 3 4 5 6 7 8 9 10 11 12 13 14 15 16 17 18 19 20 21 22 23 24 25 26 27 28 29 30 31 32 33 34 35 36 37 38 39 40 41 42 43 44 45 46 47 48 49 50

205
NZUS93 KARX 131710
HRRWXR

CURRENT HOURLY OBSERVATIONS ACROSS
MUCH OF THE UPPER MISSISSIPPI VALLEY
NATIONAL WEATHER SERVICE LA CROSSE WI
1100 AM CST SAT FEB 13 2016


...SOUTHEAST MINNESOTA...


CITY           SKY/WX    TMP DP  RH WIND       PRES   REMARKS
ROCHESTER      CLOUDY    -2 -11  65 CALM      30.57F
ROCHESTER/MAYO FAIR       3 -10  54 CALM      30.59F
WINONA         SUNNY      5  -9  51 CALM      30.66F
AUSTIN         CLOUDY    -2 -11  65 SE3       30.58F
ALBERT LEA     SUNNY      3  -9  55 SE6       30.57S WCI  -8
DODGE CENTER   CLOUDY    12  -4  48 CALM      30.56S
PRESTON        CLOUDY    -1 -14  55 CALM      30.58F
OWATONNA       SUNNY      0  -9  65 CALM      30.58F
FARIBAULT      SUNNY      1  -9  60 S3        30.60S
$$

...ELSEWHERE IN MINNESOTA...


CITY           SKY/WX    TMP DP  RH WIND       PRES   REMARKS
MINNEAPOLIS    SUNNY      1 -10  60 CALM      30.63F
INTNL FALLS    CLOUDY    -7 -16  65 CALM      30.52F
DULUTH         SUNNY     -3 -16  53 W7        30.50F WCI -16
RED WING       SUNNY      1 -15  46 CALM      30.63F
REDWOOD FALLS  CLOUDY     1  -6  72 SE10      30.57F WCI -15
MANKATO        CLOUDY     1  -8  66 SE6       30.60S WCI -10
WORTHINGTON    CLOUDY     1  -8  66 S12       30.49F WCI -15
FAIRMONT       CLOUDY     1  -6  71 SE8       30.56F WCI -12
$$

...SOUTHWEST WISCONSIN...


CITY           SKY/WX    TMP DP  RH WIND       PRES   REMARKS
LA CROSSE      SUNNY      3 -12  49 N6        30.66S WCI  -8
PRAIRIE DU CHI SUNNY      4 -14  43 CALM      30.65F
BOSCOBEL       SUNNY      6 -12  43 NW5       30.65F WCI  -3
LONE ROCK      SUNNY      4 -12  48 W8        30.64S WCI  -9
PLATTEVILLE    SUNNY      3 -10  54 NW5       30.61F WCI  -6
FORT MC COY    SUNNY      3 -12  50 W6        30.63S WCI  -8
CAMP DOUGLAS   SUNNY      1 -11  55 W9        30.59F WCI -14
VIROQUA        FAIR       1 -13  51 NW6       30.57S WCI -10
WIS DELLS      SUNNY      2 -13  49 W7        30.58S WCI -10
$$

...ELSEWHERE IN WISCONSIN...


CITY           SKY/WX    TMP DP  RH WIND       PRES   REMARKS
MILWAUKEE      MOSUNNY    8  -9  45 NW13      30.57F WCI  -8
MADISON        SUNNY      3 -11  52 VRB7      30.60R WCI  -9
GREEN BAY      SUNNY      5  -7  57 W9        30.55F WCI  -9
EAU CLAIRE     SUNNY     -2 -13  59 CALM      30.62S
BLACK RVR FLS  FAIR       2 -15  45 W6        30.62S WCI  -9
MEDFORD        SUNNY     -1 -12  59 NW7       30.51S WCI -15
WAUSAU         SUNNY      1 -10  60 NW7       30.52F WCI -12
WIS RAPIDS     SUNNY      1 -12  54 N10       30.58S WCI -15
MARSHFIELD     SUNNY     -1 -13  56 NW8       30.54S WCI -15
RICE LAKE      SUNNY     -3 -16  55 CALM      30.61S
$$

...NORTHEAST IOWA...


CITY           SKY/WX    TMP DP  RH WIND       PRES   REMARKS
WATERLOO       SUNNY      2 -10  57 E3        30.64F
DUBUQUE        SUNNY      5  -9  52 N5        30.60F WCI  -4
DECORAH        SUNNY      1 -15  46 CALM      30.59F
MASON CITY     CLOUDY     1  -5  75 S5        30.61S WCI  -9
CHARLES CITY   CLOUDY     1 -13  51 NE5       30.61F WCI  -8
OELWEIN        CLOUDY     1 -11  55 VRB3      30.61F
$$

...ELSEWHERE IN IOWA...


CITY           SKY/WX    TMP DP  RH WIND       PRES   REMARKS
DES MOINES     PTSUNNY    9  -5  53 E6        30.62F WCI  -1
IOWA CITY      SUNNY     12  -9  38 NW8       30.66F WCI   0
FORT DODGE     CLOUDY     3  -6  66 S3        30.60F
MARSHALLTOWN   MOSUNNY    5  -4  66 E3        30.61F
CEDAR RAPIDS   SUNNY     10  -5  50 N7        30.61F WCI  -1
$$

...NORTHERN ILLINOIS...


CITY           SKY/WX    TMP DP  RH WIND       PRES   REMARKS
CHICAGO-OHARE  MOSUNNY   10  -8  44 NW10      30.59S WCI  -4
CHICAGO-MIDWAY MOSUNNY   12  -9  38 NW9       30.60R WCI   0
MOLINE         SUNNY     13  -8  39 VRB7      30.65F WCI   3
ROCKFORD       MOSUNNY   10  -8  44 NW10      30.63S WCI  -4
PEORIA         SUNNY     15  -8  35 N6        30.65S WCI   6
$$

NOTE: "FAIR" INDICATES FEW OR NO CLOUDS BELOW 12,000 FEET WITH NO
SIGNIFICANT WEATHER AND/OR OBSTRUCTIONS TO VISIBILITY. WIND
SPEEDS ARE IN MILES-PER-HOUR.




USA.gov is the U.S. government's official web portal to all federal, state and local government web resources and services.